Home   Weather   Auckland   Past weeks
Flag for New Zealand

Past Weather in Auckland, New Zealand — Yesterday and Last 2 Weeks

Now
63 °F

Broken clouds.


Feels Like: 63 °F
Forecast: 62 / 55 °F
Wind: 24 mph from West

Location: Auckland Airport

Current Time: Oct 21, 2019 at 1:58:59 pm

Latest Report: Oct 21, 2019 at 1:00 pm


Visibility: N/A

Pressure: 29.89 "Hg

Humidity: 68%

Dew Point: 52 °F

Location of AucklandLocation

Past Weather in Auckland — Graph

°F

Auckland Temperature Yesterday

Maximum temperature yesterday: 63 °F (at 11:30 am)
Minimum temperature yesterday: 55 °F (at 3:30 am)
Average temperature yesterday: 59 °F

High & Low Weather Summary for the Past Weeks

 TemperatureHumidityPressure
High70 °F (Oct 9, 1:00 pm)100% (Oct 7, 8:30 pm)30.24 "Hg (Oct 7, 8:30 pm)
Low50 °F (Oct 9, 6:30 am)52% (Oct 18, 4:00 pm)29.24 "Hg (Oct 15, 8:30 am)
Average59 °F82%29.95 "Hg
* Reported Oct 6 12:00 pm — Oct 21 12:30 pm, Auckland. Weather by CustomWeather, © 2019

Note: Actual official high and low records may vary slightly from our data, if they occured in-between our weather recording intervals... More about our weather records

Advertising

Auckland Weather History for the Previous 24 Hours

Scroll right to see more
 ConditionsComfort  
Time TempWeatherWind HumidityBarometerVisibility
12:30 pm
Mon, Oct 21
64 °FBroken clouds.22 mph73%29.89 "HgN/A
12:00 pm63 °FBroken clouds.20 mph68%29.89 "HgN/A
11:30 am63 °FLight rain. Scattered clouds.17 mph73%29.89 "HgN/A
11:00 am64 °FBroken clouds.17 mph68%29.89 "HgN/A
10:30 am64 °FScattered clouds.20 mph64%29.92 "HgN/A
10:00 am63 °FScattered showers. Partly sunny.14 mph68%29.92 "HgN/A
9:30 am61 °FScattered clouds.12 mph72%29.92 "HgN/A
9:00 am61 °FPassing clouds.10 mph72%29.92 "HgN/A
8:30 am59 °FPartly sunny.8 mph77%29.92 "HgN/A
8:00 am57 °FPartly sunny.3 mph82%29.92 "HgN/A
7:30 am55 °FCool.5 mph82%29.92 "HgN/A
7:00 am55 °FScattered clouds.3 mph82%29.95 "HgN/A
6:30 am54 °FBroken clouds.5 mph88%29.95 "HgN/A
6:00 am55 °FPassing clouds.6 mph82%29.95 "HgN/A
5:30 am54 °FOvercast.8 mph88%29.95 "HgN/A
5:00 am54 °FPassing clouds.6 mph88%29.95 "HgN/A
4:30 am54 °FPassing clouds.5 mph88%29.95 "HgN/A
4:00 am55 °FOvercast.5 mph82%29.95 "HgN/A
3:30 am55 °FOvercast.3 mph82%29.98 "HgN/A
3:00 am55 °FOvercast.3 mph82%29.98 "HgN/A
2:30 am55 °FPassing clouds.3 mph82%29.98 "HgN/A
2:00 am55 °FOvercast.5 mph82%29.98 "HgN/A
1:30 am55 °FOvercast.6 mph77%30.01 "HgN/A
1:00 am55 °FOvercast.6 mph77%30.01 "HgN/A
12:30 am55 °FPassing clouds.3 mph77%30.01 "HgN/A
12:00 am55 °FPartly cloudy.3 mph77%30.01 "HgN/A
11:30 pm
Sun, Oct 20
55 °FPassing clouds.6 mph77%30.01 "HgN/A
11:00 pm55 °FCool.8 mph77%30.01 "HgN/A
10:30 pm55 °FCool.7 mph77%30.04 "HgN/A
10:00 pm57 °FPassing clouds.7 mph67%30.04 "HgN/A
9:30 pm57 °FPassing clouds.7 mph67%30.04 "HgN/A
9:00 pm55 °FCool.7 mph72%30.01 "HgN/A
8:30 pm55 °FCool.6 mph72%30.01 "HgN/A
8:00 pm55 °FCool.6 mph72%30.01 "HgN/A
7:30 pm57 °FCool.8 mph72%30.01 "HgN/A
7:00 pm59 °FCool.9 mph68%30.01 "HgN/A
6:30 pm59 °FCool.12 mph63%30.01 "HgN/A
6:00 pm59 °FCool.14 mph68%30.01 "HgN/A
5:30 pm61 °FCool.14 mph63%30.01 "HgN/A
5:00 pm63 °FMild.12 mph59%30.01 "HgN/A
4:30 pm63 °FPartly sunny.14 mph64%30.01 "HgN/A
4:00 pm61 °FPartly sunny.14 mph63%30.01 "HgN/A
3:30 pm63 °FPassing clouds.13 mph64%30.01 "HgN/A
3:00 pm63 °FPartly sunny.15 mph59%30.04 "HgN/A
2:30 pm63 °FPartly sunny.14 mph59%30.04 "HgN/A
2:00 pm63 °FPassing clouds.12 mph64%30.04 "HgN/A
1:30 pm63 °FScattered clouds.12 mph64%30.04 "HgN/A
1:00 pm63 °FPartly sunny.14 mph59%30.04 "HgN/A
Weather by CustomWeather, © 2019

See weather overview